Inquirer Daily News

Weather

Get conditions and forecasts for any City, State, ZIP code or Country:  
Trenton, NJ
on Friday, November 16, 2012

Friday
Previous Day Next Day
Daily Summary
 ActualAverageRecord
Temperature
Mean Temperature °F 46°F  
Max Temperature 49°F 55°F 73°F (2005)
Min Temperature 30°F 37°F 16°F (1996)
Degree Days
Heating Degree Days 25 19  
Month to date heating degree days 346 273  
Since 1 July heating degree days 653 670  
Cooling Degree Days 0 0  
Month to date cooling degree days 0 0  
Year to date cooling degree days 1234 965  
Moisture
Dew Point 26°F   
Average Humidity 60    
Maximum Humidity 78    
Minimum Humidity 42    
Precipitation
Precipitation 0.00 in 0.10 in 2.02 in (1926)
Month to date precipitation 0.58 1.65  
Year to date precipitation 32.63 41.08  
Wind
Wind Speed 5 mph   
Max Wind Speed 8 mph   
Max Gust Speed 13 mph   
Visibility 10 miles   
Events     

Key: T is trace of precipitation, MM is missing value
Source: NWS Daily Summary
Time(EST)TemperatureDew PointHumidity Pressure Visibility Wind DirectionWind SpeedGust SpeedPrecipitationEvents Conditions
12:53 AM 35.1°F 28.0°F 76% 30.28 in 10.0 miles North 5.8 mph - N/A   Clear
1:53 AM 36.0°F 27.0°F 70% 30.29 in 10.0 miles North 5.8 mph - N/A   Clear
2:53 AM 36.0°F 25.0°F 64% 30.29 in 10.0 miles North 5.8 mph - N/A   Clear
3:53 AM 35.1°F 27.0°F 72% 30.29 in 10.0 miles NNW 4.6 mph - N/A   Clear
4:53 AM 35.1°F 26.1°F 70% 30.29 in 10.0 miles North 4.6 mph - N/A   Clear
5:53 AM 35.1°F 26.1°F 70% 30.29 in 10.0 miles NNW 6.9 mph - N/A   Clear
6:53 AM 35.1°F 26.1°F 70% 30.30 in 10.0 miles North 4.6 mph - N/A   Clear
7:53 AM 36.0°F 26.1°F 67% 30.32 in 10.0 miles North 5.8 mph - N/A   Clear
8:53 AM 37.9°F 27.0°F 65% 30.33 in 10.0 miles North 6.9 mph - N/A   Clear
9:53 AM 41.0°F 26.1°F 55% 30.34 in 10.0 miles North 8.1 mph - N/A   Clear
10:53 AM 43.0°F 26.1°F 51% 30.32 in 10.0 miles NNE 9.2 mph - N/A   Clear
11:53 AM 44.1°F 27.0°F 51% 30.31 in 10.0 miles ENE 6.9 mph - N/A   Clear
1:53 PM 46.9°F 28.0°F 48% 30.30 in 10.0 miles ENE 3.5 mph - N/A   Clear
2:53 PM 48.9°F 28.0°F 44% 30.31 in 10.0 miles North 5.8 mph - N/A   Clear
3:53 PM 48.0°F 26.1°F 42% 30.32 in 10.0 miles North 8.1 mph - N/A   Clear
4:53 PM 44.1°F 26.1°F 49% 30.32 in 10.0 miles Calm Calm - N/A   Clear
5:53 PM 41.0°F 26.1°F 55% 30.35 in 10.0 miles North 3.5 mph - N/A   Clear
6:53 PM 37.9°F 26.1°F 62% 30.36 in 10.0 miles Calm Calm - N/A   Clear
7:53 PM 35.1°F 25.0°F 67% 30.38 in 10.0 miles North 3.5 mph - N/A   Clear
8:53 PM 34.0°F 26.1°F 73% 30.40 in 10.0 miles NNW 4.6 mph - N/A   Clear
9:53 PM 32.0°F 26.1°F 79% 30.41 in 10.0 miles North 3.5 mph - N/A   Clear
10:53 PM 30.9°F 25.0°F 79% 30.42 in 10.0 miles North 3.5 mph - N/A   Clear
11:53 PM 34.0°F 24.1°F 67% 30.43 in 10.0 miles NNE 4.6 mph - N/A   Clear
Astronomy
Sunrise:06:46 AM (EST) Moon Rise:09:39 AM (EST)11/16
Sunset:04:41 PM (EST) Moon Set:07:37 PM (EST)11/16
Moon Phase
Nov. 16 Nov. 20 Nov. 28 Dec. 06 Dec. 13

Copyright © 2014 The Weather Underground, Inc.